Back to catalog

STARLINK-4634

AliveCommunicationsVLEO
NORAD 53967·PAYLOAD·🇺🇸 United States

Launched Oct 5, 2022 from Vandenberg Space Force Base

Loading…

Next Passes (next 24 hours)

TLE

FreshSource: CelesTrak SupGP

Epoch: Sep 14, 2026, 13:49 UTC

1 53967C 22125D   26257.57618056  .00003203  00000+0  94625-4 0  2576
2 53967  53.1579  89.2509 0001155  94.7960  42.4260 15.34391142    14

Track STARLINK-4634 in real time with AllMySat

Download on the App Store